Regional Weather Roundup
Issued by NWS

Home | Current Version | Previous Version | Graphics & Text | Print | Product List | Glossary On
Versions: 1 2 3 4 5 6 7 8 9 10 11 12 13 14 15 16 17 18 19 20 21 22 23 24 25 26 27
000
ASUS45 KTFX 251510
RWRMT
MONTANA REGIONAL WEATHER ROUNDUP
NATIONAL WEATHER SERVICE GREAT FALLS MT
900 AM MDT SUN SEP 25 2016

NOTE: "FAIR" INDICATES FEW OR NO CLOUDS BELOW 12000 FEET WITH NO
SIGNIFICANT WEATHER AND/OR OBSTRUCTIONS TO VISIBILITY.

MTZ001>007-043-251600-
WEST OF THE DIVIDE

CITY           SKY/WX    TMP DP  RH WIND       PRES   REMARKS
KALISPELL      PTSUNNY   44  41  89 CALM      30.42S
MISSOULA       CLOUDY    43  38  82 CALM      30.49S
BUTTE          CLOUDY    33  29  85 SE3       30.49R
MULLAN PASS    CLOUDY    41  33  73 VRB6      30.46R
ANACONDA         N/A     43  34  70 NW3       30.48R
DEER LODGE       N/A     39  32  75 CALM      30.50F
EUREKA           N/A     52  37  58 S7        30.39R
HAMILTON         N/A     46  36  66 SE6       30.47F
LIBBY            N/A     43  39  87 CALM      30.41R
PLAINS           N/A     45  39  79 CALM      30.42R
RONAN            N/A     48  41  77 CALM      30.44R
$$

MTZ008-052>055-251600-
SOUTHWEST MONTANA

CITY           SKY/WX    TMP DP  RH WIND       PRES   REMARKS
BOZEMAN        SUNNY     42  34  73 SE3       30.48R
DILLON         CLOUDY    39  33  79 W7        30.47R
W YELLOWSTONE  SUNNY     32  28  86 CALM      30.53R
ENNIS          SUNNY     41  32  70 SE5       30.51S
THREE FORKS      N/A     40  21  46 CALM      30.41R
TWIN BRIDGES     N/A     38  32  79 S6        30.41
$$

MTZ009-010-012-014-046-048-049-054-251600-
EAST SLOPES AND CENTRAL MONTANA

CITY           SKY/WX    TMP DP  RH WIND       PRES   REMARKS
CUT BANK       SUNNY     49  38  65 W6        30.33S
GREAT FALLS    SUNNY     49  35  58 S13       30.37R
MALMSTROM AFB  SUNNY     48  38  69 SW12      30.37R
HELENA         SUNNY     50  33  52 CALM      30.43R
AUGUSTA          N/A     51  33  50 W15       30.36S
BOWMANS CRNR     N/A     44  36  73 S13       30.37R
CHOTEAU          N/A     54  34  47 SW7       30.37S
CONRAD           N/A     52  41  66 S7        30.32S
FAIRFIELD        N/A     48  36  63 S7        30.35S
POWER            N/A     47  38  71 SW10      30.36R
RAYNESFORD       N/A     45  37  74 E2        30.38R
$$

MTZ011-013-016-021-045-047-050-051-251600-
NORTH CENTRAL MONTANA

CITY           SKY/WX    TMP DP  RH WIND       PRES   REMARKS
HAVRE          SUNNY     48  41  76 SW15      30.32R
LEWISTOWN      SUNNY     43  38  82 E5        30.38R
N BAR RANCH      N/A     48  36  61 CALM      30.38S
CHINOOK          N/A     45  41  87 CALM      30.32S
DENTON           N/A     50  37  62 SW13      30.33R
GEYSER           N/A     51  33  50 W15       30.36S
GRASS RANGE      N/A     49  38  66 W12       30.33R
JUDITH GAP       N/A     43  36  75 S9        30.38R
ROY              N/A     53  39  59 MISG      30.33R
STANFORD         N/A     50  34  54 W17       30.36R
WINIFRED         N/A     49  37  63 MISG      30.35R
$$

MTZ017>020-022>027-061-062-251600-
NORTHEAST MONTANA

CITY           SKY/WX    TMP DP  RH WIND       PRES   REMARKS
GLASGOW        SUNNY     43  36  76 W10       30.29R
JORDAN           N/A     46  43  89 W6        30.32R
SIDNEY         SUNNY     50  39  66 NW15      30.21R
WOLF POINT     SUNNY     48  38  68 W12       30.27R
PLENTYWOOD       N/A     46  37  71 W21       30.17R
POPLAR           N/A     48  39  71 W13       30.25R
SCOBEY           N/A     48  34  58 W13       30.19R
$$

MTZ028>42-056>058-251600-
SOUTHCENTRAL AND SOUTHEAST MONTANA

CITY           SKY/WX    TMP DP  RH WIND       PRES   REMARKS
BAKER          SUNNY     47  38  71 W17       30.28R
BILLINGS       CLOUDY    48  37  65 SW12      30.39R
LIVINGSTON     SUNNY     43  33  68 NW10      30.42S
MILES CITY     SUNNY     50  40  68 NW12      30.33R
BIG TIMBER     SUNNY     48  32  53 W22G30    30.41F
EKALAKA          N/A     46  38  74 W13       30.26
FORSYTH          N/A     48  45  87 W8        30.36R
HARLOWTON        N/A     45  35  68 W17       30.39S
LAUREL           N/A     48  37  65 S3        30.34S
ROUNDUP          N/A     48  36  63 S12       30.25S
$$

REGIONAL REPORTS...DAKOTAS

CITY           SKY/WX    TMP DP  RH WIND       PRES   REMARKS
WILLISTON      SUNNY     51  39  63 NW21G28   30.16R
MINOT          MOSUNNY   52  43  71 W26G40    29.98R
DICKINSON      SUNNY     48  39  71 NW21G31   30.15R
CROSBY           N/A     50  41  71 NW24G32   30.12R
WATFORD CITY     N/A     48  41  76 NW14G23   30.17R
BISMARCK       PTSUNNY   53  45  74 NW16G33   30.03R
GRAND FORKS    LGT RAIN  56  54  93 W13       29.67F
FARGO          CLOUDY    57  51  80 W18       29.77R
BUFFALO SD       N/A     49  38  65 NW21      30.21R
RAPID CITY     SUNNY     54  31  41 NW29G38   30.31R
$$

REGIONAL REPORTS...WYOMING/IDAHO/WASHINGTON

CITY           SKY/WX    TMP DP  RH WIND       PRES   REMARKS
GILLETTE       SUNNY     49  42  77 NW16      30.39S
SHERIDAN       CLOUDY    53  41  63 W5        30.41S
BUFFALO WY     CLOUDY    50  38  63 CALM      30.44R
CODY           SUNNY     45  37  73 CALM      30.46S
YELLOWSTONE LA   N/A     35  32  88 CALM      30.55R
IDAHO FALLS    SUNNY     43  37  79 CALM      30.51R
SALMON         CLOUDY    39  36  87 N3        30.53S
BOISE          SUNNY     50  37  61 S6        30.45R
SPOKANE        PTSUNNY   53  38  56 SE10      30.40S
$$

REGIONAL REPORTS...ALBERTA

CITY           SKY/WX    TMP DP  RH WIND       PRES   REMARKS
EDMONTON       SUNNY     41  34  75 SW8       30.22R
CALGARY        PTSUNNY   41  28  60 VRB3      30.25F
LETHBRIDGE     PTSUNNY   45  37  76 SW8       30.28F
MEDICINE HAT   PTSUNNY   45  39  81 SW10      30.27S
CARDSTON         N/A     48  36  61 S3          N/A
MILK RIVER       N/A     43  37  81 NW8         N/A
$$

REGIONAL REPORTS...SASKATCHEWAN

CITY           SKY/WX    TMP DP  RH WIND       PRES   REMARKS
SWIFT CURRENT  SUNNY     43  36  75 W13       30.23S
REGINA         MOSUNNY   48  39  71 NW17G25   30.12R
SASKATOON      SUNNY     46  36  66 NW15G22   30.15S
VAL MARIE        N/A     46  36  66 W6          N/A
ROCKGLEN         N/A     48  36  61 W14G23      N/A
$$




USA.gov is the U.S. government's official web portal to all federal, state and local government web resources and services.